Content
SEND FEEDBACK

Daily
Averages
Monthly
Summary
Argentina

FUNES, ARGENTINA


Home > South America > Argentina
Elevation: 82 feet     Latitude: 32 55S     Longitude: 060 46W

WEATHER
 
SELECT A DAY
Number of Records: 144,987;   Date Range: 6/30/96 - 11/26/14
 
SHARE

PRINT THIS DATA

[ ← Previous Day ]
WEATHER ALMANAC - FEBRUARY 13, 2013
[ Next Day → ]
[ °C ]   °F
Weather ElementAverageHighLow
Temperature69.8 °F80.6 °F (12:00 am)64.4 °F (3:00 am)
Dewpoint65.8 °F69.8 °F (1:00 am)62.6 °F (3:00 am)
Humidity86.7 %94 % (3:00 am)65 % (12:00 am)
Barometer29.79 in29.86 in (3:00 pm)29.65 in (12:00 am)
Wind Speed7.9 mph32.2 mph (2:16 am)
Wind Gust51.8 mph (2:16 am)
Weather ElementAverage
Visibility5.6 mi
Wind DirectionS (175 °)

Weather ElementTotal
Precipitation---
Cooling Degree Days7.5 (Base 65)
Growing Degree Days22.5 (Base 50)
Averaged from 29 records on February 13, 2013
WEATHER CONDITIONS BREAKOUT
WIND DIRECTION BREAKOUT
WEATHER BY HOUR - FEBRUARY 13, 2013
[ °C ]   °F
Local TimeTemperatureDewpointHumidityBarometerVisibilityWind DirectionWind SpeedGust SpeedPrecipitationEventsConditions
12:00 AM80.6 °F68.0 °F65 %29.65 in6.2 miEast (90°)8.1 mphPartly Cloudy
1:00 AM77.0 °F69.8 °F78 %29.68 in6.2 miENE (70°)9.2 mphPartly Cloudy
2:00 AM77.0 °F69.8 °F78 %29.68 in6.2 miNE (50°)4.6 mphMostly Cloudy
2:12 AM77.0 °F69.8 °F78 %29.68 in6.2 miSSW (200°)26.5 mph43.7 mphOvercast
2:16 AM77.0 °F69.8 °F78 %29.68 in5.0 miSSW (200°)32.2 mph51.8 mphRain-ThunderstormThunderstorms and Rain
3:00 AM64.4 °F62.6 °F94 %29.80 in5.0 miSouth (180°)26.5 mph51.8 mphRain-ThunderstormLight Thunderstorms and Rain
4:00 AM66.2 °F62.6 °F88 %29.80 in5.0 miSSE (160°)17.3 mphRain-ThunderstormLight Thunderstorms and Rain
5:00 AM66.2 °F62.6 °F88 %29.83 in2.5 miNW (320°)8.1 mphRainRain
6:00 AM66.2 °F64.4 °F94 %29.83 in4.3 miSouth (180°)2.3 mphRainLight Rain
7:00 AM66.2 °F64.4 °F94 %29.80 in5.6 miNE (50°)6.9 mphRainLight Rain
8:00 AM68.0 °F64.4 °F88 %29.77 in5.6 miNE (50°)5.8 mphRainLight Rain
9:00 AM68.0 °F65.0 °F88 %29.81 in6.0 miCalmRainLight Rain
9:00 AM68.0 °F66.2 °F94 %29.80 in5.6 miCalmRainLight Rain
10:00 AM69.8 °F66.2 °F88 %29.80 in4.3 miWSW (250°)2.3 mphRainLight Rain
12:00 PM71.6 °F66.2 °F83 %29.80 in6.2 miSouth (180°)3.5 mphOvercast
12:00 PM71.0 °F67.0 °F83 %29.81 in9.0 miSouth (180°)3.5 mphThunderstormLight Thunderstorm
1:00 PM71.6 °F62.6 °F73 %29.80 in5.0 miWest (270°)16.1 mphRainLight Rain
2:00 PM69.8 °F64.4 °F83 %29.83 in3.1 miNW (320°)6.9 mphRainRain
3:00 PM68.0 °F64.4 °F88 %29.86 in3.1 miSW (230°)10.4 mphRain-ThunderstormThunderstorms and Rain
4:00 PM68.0 °F66.2 °F94 %29.86 in3.1 miSSW (200°)9.2 mphRain-ThunderstormLight Thunderstorms and Rain
5:00 PM68.0 °F66.2 °F94 %29.80 in6.2 miCalmRainLight Rain
6:00 PM69.8 °F66.2 °F88 %29.77 in6.2 miWNW (290°)2.3 mphOvercast
6:00 PM69.0 °F66.0 °F87 %29.78 in9.0 miWNW (290°)2.3 mphRainLight Rain
7:00 PM68.0 °F66.2 °F94 %29.80 in6.2 miWest (270°)2.3 mphRainLight Rain
8:00 PM68.0 °F66.2 °F94 %29.80 in6.2 miSW (230°)5.8 mphOvercast
9:00 PM69.0 °F65.0 °F84 %29.82 in9.0 miSW (230°)6.9 mphPartly Cloudy
9:00 PM68.0 °F64.4 °F88 %29.80 in6.2 miSW (230°)6.9 mphOvercast
10:00 PM68.0 °F66.2 °F94 %29.83 inSouth (180°)3.5 mphClear
11:00 PM66.2 °F64.4 °F94 %29.83 inCalmClear
Hourly data recorded from SAAR, located miles away from Funes, Argentina







STORIES FROM OUR PARTNERS